Weather History for KBXK - November, 2012

Change the Weather History Date:

Sunday, November 4, 2012

  Actual Average (KPHX) Record (KPHX)
Temperature  
Mean Temperature 70 °F 69 °F  
Max Temperature 86 °F 81 °F 95 °F (2001)
Min Temperature 53 °F 57 °F 32 °F (1956)
Degree Days  
Heating Degree Days 0 1  
Month to date heating degree days 4  
Since 1 July heating degree days 10  
Cooling Degree Days 4 5  
Month to date cooling degree days 22  
Year to date cooling degree days 4558  
Growing Degree Days 20 (Base 50)    
Moisture  
Dew Point 30 °F    
Average Humidity 23    
Maximum Humidity 51    
Minimum Humidity 12    
Precipitation  
Precipitation 0.00 in 0.02 in 0.32 in (1910)
Month to date precipitation 0.08  
Year to date precipitation 6.58  
Snow  
Snow 0.00 in - - ()
Month to date snowfall  
Year to date snowfall  
Since 1 July snowfall  
Snow Depth -    
Sea Level Pressure  
Sea Level Pressure 30.05 in    
Wind  
Wind Speed 6 mph (North)    
Max Wind Speed 10 mph    
Max Gust Speed -    
Visibility 10 miles    
Events      
T = Trace of Precipitation, MM = Missing Value Source: NWS Daily Summary

Daily Weather History Graph

Daily Weather History Graph

Search for Another Location

Airport or City:

Trip Planner

Search our weather history database for the weather conditions in past years. The results will help you decide how hot, cold, wet, or windy it might be!

Date:

Astronomy

Nov. 04, 2012 Rise Set
Actual Time 6:52 AM MST 5:35 PM MST
Civil Twilight 6:26 AM MST 6:01 PM MST
Nautical Twilight 5:57 AM MST 6:30 PM MST
Astronomical Twilight 5:28 AM MST 7:00 PM MST
Moon 10:19 PM MST (11/4) 11:35 AM MST (11/4)
Length of Visible Light 11h 34m
Length of Day
10h 43m
Waning Gibbous, 71% of the Moon is Illuminated
Nov 4
Waning Gibbous
Nov 6
Last Quarter
Nov 13
New
Nov 20
First Quarter
Nov 28
Full

Hourly Weather History & Observations

Time (MST) Temp. Dew Point Humidity Pressure Visibility Wind Dir Wind Speed Gust Speed Precip Events Conditions
12:15 AM 62.6 °F 30.2 °F 30% 30.03 in 8.0 mi NNW 6.9 mph - N/A   Clear
12:35 AM 64.4 °F 28.4 °F 26% 30.04 in 9.0 mi NNW 8.1 mph - N/A   Clear
12:55 AM 62.6 °F 28.4 °F 27% 30.04 in 10.0 mi NNE 6.9 mph - N/A   Clear
1:15 AM 62.6 °F 28.4 °F 27% 30.04 in 10.0 mi North 9.2 mph - N/A   Clear
1:35 AM 64.4 °F 26.6 °F 24% 30.04 in 10.0 mi NNE 5.8 mph - N/A   Clear
1:55 AM 62.6 °F 26.6 °F 26% 30.04 in 10.0 mi North 5.8 mph - N/A   Clear
2:15 AM 60.8 °F 26.6 °F 27% 30.04 in 10.0 mi North 6.9 mph - N/A   Clear
2:35 AM 62.6 °F 26.6 °F 26% 30.04 in 10.0 mi North 6.9 mph - N/A   Clear
2:55 AM 62.6 °F 26.6 °F 26% 30.04 in 10.0 mi North 6.9 mph - N/A   Clear
3:15 AM 60.8 °F 26.6 °F 27% 30.03 in 10.0 mi North 6.9 mph - N/A   Clear
3:35 AM 59.0 °F 26.6 °F 29% 30.03 in 10.0 mi NNW 9.2 mph - N/A   Clear
3:55 AM 59.0 °F 26.6 °F 29% 30.03 in 10.0 mi North 9.2 mph - N/A   Clear
4:15 AM 60.8 °F 26.6 °F 27% 30.03 in 10.0 mi North 9.2 mph - N/A   Clear
4:35 AM 60.8 °F 26.6 °F 27% 30.03 in 10.0 mi North 9.2 mph - N/A   Clear
4:55 AM 62.6 °F 26.6 °F 26% 30.03 in 10.0 mi NNE 9.2 mph - N/A   Clear
5:15 AM 60.8 °F 26.6 °F 27% 30.04 in 10.0 mi NE 6.9 mph - N/A   Clear
5:35 AM 60.8 °F 28.4 °F 29% 30.04 in 10.0 mi NE 8.1 mph - N/A   Clear
5:55 AM 62.6 °F 26.6 °F 26% 30.05 in 10.0 mi Calm Calm - N/A   Clear
6:15 AM 59.0 °F 32.0 °F 36% 30.05 in 10.0 mi East 3.5 mph - N/A   Clear
6:35 AM 55.4 °F 35.6 °F 47% 30.06 in 10.0 mi ESE 5.8 mph - N/A   Clear
6:55 AM 53.6 °F 35.6 °F 51% 30.06 in 10.0 mi ESE 4.6 mph - N/A   Clear
7:15 AM 55.4 °F 33.8 °F 44% 30.07 in 10.0 mi Calm Calm - N/A   Clear
7:35 AM 55.4 °F 32.0 °F 41% 30.08 in 10.0 mi Calm Calm - N/A   Clear
7:55 AM 59.0 °F 32.0 °F 36% 30.08 in 10.0 mi West 3.5 mph - N/A   Clear
8:15 AM 62.6 °F 32.0 °F 32% 30.09 in 7.0 mi Calm Calm - N/A   Clear
8:35 AM 64.4 °F 32.0 °F 30% 30.10 in 10.0 mi Calm Calm - N/A   Clear
8:55 AM 66.2 °F 32.0 °F 28% 30.10 in 10.0 mi Calm Calm - N/A   Clear
9:15 AM 68.0 °F 32.0 °F 26% 30.10 in 8.0 mi Calm Calm - N/A   Clear
9:35 AM 69.8 °F 32.0 °F 25% 30.10 in 9.0 mi Calm Calm - N/A   Clear
9:55 AM 71.6 °F 32.0 °F 23% 30.10 in 10.0 mi Calm Calm - N/A   Clear
10:15 AM 73.4 °F 30.2 °F 20% 30.11 in 10.0 mi NE 3.5 mph - N/A   Clear
10:35 AM 75.2 °F 32.0 °F 21% 30.11 in 10.0 mi Calm Calm - N/A   Clear
10:55 AM 77.0 °F 37.4 °F 24% 30.11 in 10.0 mi Calm Calm - N/A   Clear
11:15 AM 78.8 °F 32.0 °F 18% 30.09 in 8.0 mi SE 6.9 mph - N/A   Clear
11:35 AM 80.6 °F 32.0 °F 17% 30.09 in 8.0 mi SE 5.8 mph - N/A   Clear
11:55 AM 80.6 °F 32.0 °F 17% 30.08 in 10.0 mi SSE 4.6 mph - N/A   Clear
12:15 PM 82.4 °F 32.0 °F 16% 30.07 in 10.0 mi SSE 4.6 mph - N/A   Clear
12:35 PM 82.4 °F 32.0 °F 16% 30.06 in 10.0 mi ESE 5.8 mph - N/A   Clear
12:55 PM 84.2 °F 33.8 °F 16% 30.06 in 10.0 mi SE 4.6 mph - N/A   Clear
1:15 PM 84.2 °F 32.0 °F 15% 30.05 in 10.0 mi SE 5.8 mph - N/A   Clear
1:35 PM 84.2 °F 35.6 °F 18% 30.04 in 10.0 mi SSE 4.6 mph - N/A   Clear
1:55 PM 84.2 °F 35.6 °F 18% 30.03 in 10.0 mi Calm Calm - N/A   Clear
2:15 PM 86.0 °F 33.8 °F 15% 30.02 in 10.0 mi South 3.5 mph - N/A   Clear
2:35 PM 86.0 °F 37.4 °F 18% 30.02 in 10.0 mi South 4.6 mph - N/A   Clear
2:55 PM 86.0 °F 33.8 °F 15% 30.02 in 10.0 mi South 5.8 mph - N/A   Clear
3:15 PM 86.0 °F 32.0 °F 14% 30.01 in 10.0 mi South 4.6 mph - N/A   Clear
3:35 PM 86.0 °F 32.0 °F 14% 30.01 in 10.0 mi SSW 3.5 mph - N/A   Clear
3:55 PM 86.0 °F 28.4 °F 12% 30.01 in 10.0 mi Calm Calm - N/A   Clear
4:15 PM 86.0 °F 28.4 °F 12% 30.01 in 10.0 mi Calm Calm - N/A   Clear
4:35 PM 86.0 °F 28.4 °F 12% 30.01 in 10.0 mi South 3.5 mph - N/A   Clear
4:55 PM 86.0 °F 32.0 °F 14% 30.01 in 10.0 mi SW 3.5 mph - N/A   Clear
5:15 PM 84.2 °F 32.0 °F 15% 30.01 in 10.0 mi Calm Calm - N/A   Clear
5:35 PM 82.4 °F 35.6 °F 19% 30.01 in 10.0 mi Calm Calm - N/A   Clear
5:55 PM 80.6 °F 32.0 °F 17% 30.02 in 10.0 mi Calm Calm - N/A   Clear
6:15 PM 80.6 °F 28.4 °F 15% 30.02 in 10.0 mi Calm Calm - N/A   Clear
6:35 PM 77.0 °F 32.0 °F 19% 30.03 in 10.0 mi West 3.5 mph - N/A   Clear
6:55 PM 75.2 °F 30.2 °F 19% 30.03 in 4.0 mi WNW 8.1 mph - N/A   Clear
7:15 PM 73.4 °F 28.4 °F 19% 30.03 in 6.0 mi NW 6.9 mph - N/A   Clear
7:35 PM 71.6 °F 26.6 °F 19% 30.03 in 8.0 mi NNW 6.9 mph - N/A   Clear
7:55 PM 71.6 °F 26.6 °F 19% 30.03 in 10.0 mi North 6.9 mph - N/A   Clear
8:15 PM 68.0 °F 26.6 °F 21% 30.03 in 10.0 mi NNW 8.1 mph - N/A   Clear
8:35 PM 68.0 °F 26.6 °F 21% 30.04 in 10.0 mi NNW 9.2 mph - N/A   Clear
8:55 PM 68.0 °F 26.6 °F 21% 30.05 in 9.0 mi NNW 9.2 mph - N/A   Clear
9:15 PM 68.0 °F 28.4 °F 23% 30.05 in 10.0 mi NNW 8.1 mph - N/A   Clear
9:35 PM 66.2 °F 26.6 °F 23% 30.05 in 10.0 mi NNW 9.2 mph - N/A   Clear
9:55 PM 66.2 °F 26.6 °F 23% 30.05 in 8.0 mi NNW 9.2 mph - N/A   Clear
10:15 PM 66.2 °F 26.6 °F 23% 30.05 in 8.0 mi NNW 9.2 mph - N/A   Clear
10:35 PM 66.2 °F 26.6 °F 23% 30.05 in 8.0 mi NNW 9.2 mph - N/A   Clear
10:55 PM 66.2 °F 24.8 °F 21% 30.05 in 10.0 mi North 10.4 mph - N/A   Clear
11:15 PM 66.2 °F 24.8 °F 21% 30.05 in 10.0 mi NNW 9.2 mph - N/A   Clear
11:35 PM 64.4 °F 24.8 °F 22% 30.05 in 10.0 mi NNW 9.2 mph - N/A   Clear
11:55 PM 64.4 °F 28.4 °F 26% 30.06 in 6.0 mi ENE 5.8 mph - N/A   Clear